Weather Service Report


159 
ASUS43 KTOP 230308
RWRKS 

WEATHER ROUNDUP FOR KANSAS
NATIONAL WEATHER SERVICE GOODLAND KS
1000 PM CDT WED OCT 22 2014

NOTE:  "FAIR" INDICATES FEW OR NO CLOUDS BELOW 12,000 FEET WITH NO
SIGNIFICANT WEATHER AND/OR OBSTRUCTIONS TO VISIBILITY.

KSZ001>006-013>018-027>032-041>047-230400-
NORTHWEST KANSAS
  
CITY           SKY/WX    TMP DP  RH WIND       PRES   REMARKS
GOODLAND       PTCLDY    51  45  79 E6        30.10S                  
HAYS           MOCLDY    61  54  77 S13       30.05S                  
HILL CITY      CLEAR     60  54  80 S3        30.05R                  
RUSSELL        CLOUDY    62  57  83 S15       30.03F                  
$$

KSZ061>065-074>080-084>089-230400-
SOUTHWEST KANSAS
  
CITY           SKY/WX    TMP DP  RH WIND       PRES   REMARKS
DODGE CITY     CLOUDY    61  57  87 S20       30.07R                  
ELKHART          N/A     60  54  80 S7          N/A                   
GARDEN CITY    CLOUDY    61  58  90 S14G21    30.07R                  
GREAT BEND     CLOUDY    61  54  77 S13       30.08R                  
LIBERAL        PTCLDY    61  54  77 S12       30.08R                  
PRATT          PTCLDY    59  55  88 S15       30.08F                  
$$

KSZ066>073-081>083-090>101-230400-
SOUTHEAST KANSAS
  
CITY           SKY/WX    TMP DP  RH WIND       PRES   REMARKS
CHANUTE        CLOUDY    64  59  83 SE7       30.11R                  
COFFEYVILLE    MOCLDY    66  57  72 S10       30.10S                  
HUTCHINSON     CLOUDY    63  58  83 SE9       30.08R                  
MEDICINE LODGE   N/A     63  59  87 S10       30.09R                  
NEWTON         CLOUDY    63  55  77 S6        30.10S                  
PARSONS        CLOUDY    67  58  72 S5        30.12R                  
WICHITA INTL   CLOUDY    64  59  83 SW6       30.09R                  
WICHITA JABRA  CLOUDY    68  57  68 S6        30.09R                  
WICHITA MCCONL LGT RAIN  67  61  81 S8        30.09R                  
WINFIELD       LGT RAIN  68  59  73 S10       30.11R                  
$$

KSZ007>012-019>026-033>040-048>060-102>105-230400-
NORTHEAST KANSAS
  
CITY           SKY/WX    TMP DP  RH WIND       PRES   REMARKS
CONCORDIA      CLOUDY    62  60  93 S12       30.05R                  
EMPORIA        CLOUDY    65  57  75 S9        30.09R                  
LAWRENCE       PTCLDY    63  55  75 SE9       30.10R                  
MANHATTAN      LGT RAIN  65  60  84 W5        30.07R                  
MARYSVILLE     LGT RAIN  63  59  88 CALM      30.07S                  
OLATHE IND     CLEAR     62  53  72 SE10      30.12R                  
OLATHE EXE     CLEAR     61  53  75 SE9       30.11S                  
SALINA         CLOUDY    63  58  83 S9        30.05F                  
TOPEKA BILLARD CLOUDY    68  58  70 SE10      30.08S                  
TOPEKA FORBES  CLOUDY    66  57  72 SE12      30.08R                  
$$

Return to Home page


Western Regional Climate Center, wrcc@dri.edu